This is the latest recevied weather packets stored in our database for station/object WA6ODQ-13. If no packets are shown the sender has not sent any weather packets the latest 10 day(s).
| Time | Temp. | Humidity | Pressure | Rain* | Wind** | Luminosity | Snow |
|---|---|---|---|---|---|---|---|
| 1788534509 | 15° C | 86% | 1011.5 hPa | 0 mm | - | 34 W/m² | - |
| 1788534209 | 15° C | 87% | 1011.5 hPa | 0 mm | - | 32 W/m² | - |
| 1788533906 | 14.44° C | 87% | 1011.5 hPa | 0 mm | - | 31 W/m² | - |
| 1788533603 | 14.44° C | 88% | 1011.4 hPa | 0 mm | - | 27 W/m² | - |
| 1788533299 | 14.44° C | 88% | 1011.3 hPa | 0 mm | - | 25 W/m² | - |
| 1788532994 | 13.89° C | 88% | 1011.4 hPa | 0 mm | - | 23 W/m² | - |
| 1788532690 | 13.89° C | 89% | 1011.4 hPa | 0 mm | - | 22 W/m² | - |
| 1788532387 | 13.89° C | 90% | 1011.4 hPa | 0 mm | - | 21 W/m² | - |
| 1788532082 | 13.33° C | 91% | 1011 hPa | 0 mm | - | 20 W/m² | - |
| 1788531777 | 13.33° C | 92% | 1011.1 hPa | 0 mm | - | 18 W/m² | - |
| 1788531472 | 12.78° C | 92% | 1011 hPa | 0 mm | - | 16 W/m² | - |
| 1788531168 | 12.78° C | 92% | 1010.9 hPa | 0 mm | - | 15 W/m² | - |
| 1788530863 | 12.78° C | 92% | 1010.7 hPa | 0 mm | - | 13 W/m² | - |
| 1788530559 | 12.78° C | 91% | 1010.8 hPa | 0 mm | - | 11 W/m² | - |
| 1788530257 | 12.78° C | 91% | 1010.7 hPa | 0 mm | - | 9 W/m² | - |
| 1788529953 | 12.78° C | 91% | 1010.5 hPa | 0 mm | - | 7 W/m² | - |
| 1788529649 | 12.78° C | 90% | 1010.6 hPa | 0 mm | - | 5 W/m² | - |
| 1788529348 | 12.78° C | 90% | 1010.5 hPa | 0 mm | - | 3 W/m² | - |
| 1788529043 | 13.33° C | 90% | 1010.5 hPa | 0 mm | - | 2 W/m² | - |
| 1788528739 | 13.33° C | 89% | 1010.5 hPa | 0 mm | - | 1 W/m² | - |
| 1788528438 | 13.33° C | 89% | 1010.5 hPa | 0 mm | - | 0 W/m² | - |
| 1788528134 | 13.89° C | 89% | 1010.5 hPa | 0 mm | - | 0 W/m² | - |
| 1788527832 | 13.89° C | 89% | 1010.5 hPa | 0 mm | - | 0 W/m² | - |
| 1788527528 | 13.89° C | 89% | 1010.3 hPa | 0 mm | - | 0 W/m² | - |
| 1788527223 | 13.89° C | 89% | 1010 hPa | 0 mm | - | 0 W/m² | - |
* Rain latest hour (hover to see other rain measurements)
** Current wind speed in m/s (hover to see current wind gust speed)